Regional Weather Roundup
Issued by NWS

Home | Current Version | Previous Version | Graphics & Text | Print | Product List | Glossary On
Versions: 1 2 3 4 5 6 7 8 9 10 11 12 13 14 15 16 17 18 19 20 21 22 23 24 25 26 27 28 29 30 31 32 33 34 35 36 37 38 39 40 41 42 43 44 45 46 47 48 49 50
000
ASUS43 KDMX 280306
RWRIA

WEATHER ROUNDUP FOR IOWA
NATIONAL WEATHER SERVICE DES MOINES IA
1000 PM CDT SUN MAY 27 2018

NOTE: "FAIR" INDICATES FEW OR NO CLOUDS BELOW 12,000 FEET WITH NO
SIGNIFICANT WEATHER AND/OR OBSTRUCTIONS TO VISIBILITY.

* - THESE STATIONS ARE NOT NWS STATIONS...THUS NOT UNDER NWS
QUALITY CONTROL.  THEY ALSO DO NOT REPORT WEATHER SUCH
AS PRECIPITATION OR FOG.

IAZ001>003-012>014-020>022-031>034-043>046-280400-
   NORTHWEST IOWA

CITY           SKY/WX    TMP DP  RH WIND       PRES   REMARKS
CARROLL *      CLOUDY    84  59  42 SW7       29.83R HX  84
CHEROKEE *     CLEAR     80  60  49 CALM      29.82S HX  81
DENISON *      PTCLDY    82  61  47 S3        29.85R HX  83
LE MARS *      PTCLDY    82  57  42 S6        29.79F HX  82
ORANGE CITY *  PTCLDY    86  55  35 S8        29.80F HX  84
SHELDON *      PTCLDY    84  55  37 MISG      29.79F HX  83
SIOUX CITY     MOCLDY    82  58  43 S7        29.79F HX  82
SPENCER        CLOUDY    85  58  39 S9        29.82R HX  84
STORM LAKE *   CLOUDY    82  55  39 S8        29.84R HX  82
$$

IAZ055>058-069>071-079>083-090>094-280400-
   SOUTHWEST IOWA

CITY           SKY/WX    TMP DP  RH WIND       PRES   REMARKS
ATLANTIC *     PTCLDY    81  63  54 SW6       29.84S HX  82
AUDUBON *      PTCLDY    86  59  39 SW9       29.86R HX  85
CLARINDA *       N/A     81  64  57 S5        29.89R HX  82
COUNCIL BLFS * PTCLDY    81  64  57 S7        29.85S HX  82
CRESTON *      CLOUDY    82  66  57 S9        29.89R HX  85
HARLAN  *      PTCLDY    82  61  47 SW6       29.87S HX  83
LAMONI         PTCLDY    83  70  64 S6        29.87R HX  87
RED OAK *      CLEAR     82  63  51 S5        29.87R HX  83
SHENANDOAH *   CLEAR     81  63  54 CALM      29.87R HX  82
$$

IAZ047>049-059>061-072>074-084-280400-
   CENTRAL IOWA

CITY           SKY/WX    TMP DP  RH WIND       PRES   REMARKS
AMES           PTCLDY    78  65  63 S7        29.82S HX  80
ANKENY *       CLOUDY    82  68  61 S5        29.84R HX  85
BOONE *        CLOUDY    82  63  51 SE5       29.83R HX  83
CHARITON *     CLOUDY    82  72  69 SE5       29.86S HX  87
DES MOINES     MOCLDY    86  66  51 SE8       29.82S HX  88
GRINNELL*      CLOUDY    83  64  51 SE6       29.87S HX  84
KNOXVILLE *    CLOUDY    82  64  54 S6        29.83F HX  84
MARSHALLTOWN   PTCLDY    80  63  55 SE9       29.84S HX  81
NEWTON *       PTCLDY    81  66  61 SE7       29.85R HX  83
PELLA *        MOCLDY    81  64  57 SE3       29.86S HX  82
PERRY *        FAIR      83  60  45 S8        29.83R HX  83
$$

IAZ004>006-015-016-023>025-035-036-280400-
   NORTH CENTRAL IOWA

CITY           SKY/WX    TMP DP  RH WIND       PRES   REMARKS
ALGONA *       MOCLDY    82  61  47 SE9       29.83R HX  83
CLARION *      CLOUDY    84  57  39 S9        29.85R HX  83
ESTHERVILLE    CLOUDY    82  59  45 S12       29.82R HX  82
FORT DODGE *   MOCLDY    81  60  48 SE6       29.84R HX  82
MASON CITY     CLOUDY    83  59  44 SE10      29.86S HX  83
FOREST CITY *  FAIR      82  59  44 SE9       29.85  HX  82
WEBSTER CITY * CLOUDY    84  61  45 W6G15     29.84R HX  84
IOWA FALLS *   FAIR      81  62  52 E9        29.86S HX  82
$$

IAZ007>011-017>019-026>030-037>042-050>054-066-280400-
   NORTHEAST IOWA

CITY           SKY/WX    TMP DP  RH WIND       PRES   REMARKS
CEDAR RAPIDS   FAIR      77  68  73 E6        29.87R
CHARLES CITY * FAIR      81  59  47 SE8G14    29.87S HX  81
CLINTON *        N/A     79  70  74 CALM      29.90  HX  82
DECORAH *      FAIR      82  59  44 SE5       29.88R HX  82
DUBUQUE        FAIR      77  67  71 S3        29.90R
MONTICELLO *   FAIR      79  68  69 CALM      29.89R HX  81
OELWEIN *      FAIR      79  64  61 E8        29.89S HX  81
WATERLOO       FAIR      77  62  59 E9        29.85R
$$

IAZ064-065-067-068-078-280400-
   EAST CENTRAL IOWA

CITY           SKY/WX    TMP DP  RH WIND       PRES   REMARKS
DAVENPORT        N/A     79  68  69 S3        29.90R HX  81
IOWA CITY      FAIR      80  67  64 SE3       29.89R HX  82
MT. PLEASANT * CLOUDY    77  70  78 S3        29.89R
MUSCATINE *    FAIR      77  73  88 CALM      29.88R
QUAD CITIES    FAIR      78  71  79 CALM      29.87R HX  80
$$

IAZ062-063-075>077-085>089-095>099-280400-
   SOUTHEAST IOWA

CITY           SKY/WX    TMP DP  RH WIND       PRES   REMARKS
BURLINGTON     CLOUDY    77  70  79 SE3       29.88R
FAIRFIELD *    CLOUDY    81  66  61 S5        29.87R HX  83
FORT MADISON * CLOUDY    79  72  78 S5        29.89R HX  82
KEOKUK *       MOCLDY    77  70  78 CALM      29.87S
OSKALOOSA *    FAIR      81  67  61 SE8       29.87R HX  84
CENTERVILLE *    N/A     79  77  94 SE5       29.89R HX  83
OTTUMWA        MOCLDY    82  69  64 SE7       29.86R HX  85
WASHINGTON *   CLOUDY    81  73  78 S5        29.89R HX  85
$$

ABBREVIATIONS USED IN REMARKS
   TC - TEMPERATURES IN CELSIUS
  WCI - WIND CHILL INDEX
   HX - HEAT INDEX
  VSB - VISIBILITY
$$





USA.gov is the U.S. government's official web portal to all federal, state and local government web resources and services.